Flag for China Weather past 2 weeks in Nanning, Guangxi, China

Now
81 °F

Passing clouds.


Feels Like: 83 °F
Forecast: 70 / 87 °F
Wind: 3 mph from North

Location: Nanning Airport

Current Time: Sep 23, 2014 at 10:32:37 AM

Latest Report: Sep 23, 2014 at 10:00 AM


Visibility: N/A

Pressure: 29.89 "Hg

Humidity: 62%

Dew point: 66 °F

Location of NanningLocation

Historic Weather in Nanning — Graph

°F

Nanning temperature yesterday

Maximum temperature yesterday: 86 °F (at 2:00 PM)
Minimum temperature yesterday: 68 °F (at 6:00 AM)
Average temperature yesterday: 77 °F

Past Weeks' High & Low Weather Summary

 TemperatureHumidityPressure
High95 °F (Sep 15, 3:00 PM)100% (Sep 10, 1:00 AM)29.89 "Hg (Sep 10, 1:00 AM)
Low68 °F (Sep 22, 6:00 AM)38% (Sep 22, 2:00 PM)29.18 "Hg (Sep 16, 7:00 PM)
Average81 °F82%29.71 "Hg
* Reported Sep 8 9:00 AM — Sep 23 9:00 AM, Nanning, Weather by CustomWeather, © 2014

Note: Actual official high and low records may vary slightly from our data, if they occured in-between our weather recording intervals... More about our weather records

Advertising

Nanning weather history for previous 24 hours

 ConditionsComfort  
Time TempWeatherWind HumidityBarometerVisibility
9:00 AM
Sep 23
75 °FSunny.1 mph78%29.89 "Hg10 mi
8:00 AM70 °FSunny.1 mph94%29.86 "Hg10 mi
7:00 AM68 °FClear.1 mph94%29.83 "Hg4 mi
6:00 AM68 °FClear.1 mph94%29.83 "Hg4 mi
5:00 AM68 °FClear.1 mph94%29.80 "Hg4 mi
4:00 AM70 °FClear.1 mph88%29.80 "Hg4 mi
3:00 AM70 °FClear.No wind88%29.80 "Hg4 mi
2:00 AM70 °FClear.1 mph94%29.80 "Hg4 mi
1:00 AM70 °FClear.3 mph88%29.83 "Hg10 mi
12:00 AM70 °FClear.1 mph88%29.83 "Hg10 mi
11:00 PM
Sep 22
72 °FClear.1 mph88%29.83 "Hg10 mi
10:00 PM73 °FClear.1 mph83%29.83 "Hg10 mi
9:00 PM75 °FClear.1 mph74%29.80 "Hg10 mi
8:00 PM81 °FPassing clouds.3 mph58%29.80 "HgN/A
7:00 PM82 °FClear.6 mph48%29.77 "Hg10 mi
6:00 PM84 °FSunny.8 mph45%29.77 "Hg10 mi
5:00 PM86 °FPassing clouds.8 mph40%29.77 "HgN/A
4:00 PM86 °FSunny.10 mph40%29.74 "Hg10 mi
3:00 PM86 °FPassing clouds.8 mph40%29.77 "HgN/A
2:00 PM86 °FPassing clouds.10 mph38%29.77 "HgN/A
1:00 PM84 °FPassing clouds.10 mph40%29.80 "HgN/A
12:00 PM84 °FPassing clouds.10 mph45%29.83 "HgN/A
11:00 AM82 °FSunny.10 mph51%29.86 "Hg10 mi
10:00 AM81 °FPassing clouds.8 mph54%29.86 "HgN/A
Weather by CustomWeather, © 2014

See weather overviewHow to use our weather pages